Погода в Щучинске

Погода в Щучинске : погода сейчас, прогноз погоды и архив. Всё, что Вы хотите узнать о погоде в Щучинске!

Поиск расширенной информации на нашем сайте:

Другие новости

Новости СМИ2

Главная страница сайта

Новости сайта

03.07.2017

Напоминаем, что на нашем специализированном сайте Метеоцентр.Азия вы можете получить высокодетализированные автоматические прогнозы погоды по пунктам России, СНГ и мира в авиационном формате (включающие направление и скорость ветра, видимость, явления погоды, количество и форму облачности, нижнюю и верхнюю границу облачности).


Погода в Щучинске - сегодня

Время (UTC), дата Ветер
(°,м/с) 
Видим.   Явления Облачность Т
(°С)
Тd
(°С)
f(%) Тe
(°С)
Pmin
(гПа)
dP
(гПа)
Po
(мм)
O2
(г/м3)
Тmin Tmax R s Состояние
почвы
09 19.07.17 280 (З) 20000 м    6/6 1000 м 
[Cu med, cong]
+23.5 +12.8 51 +29  1013.8  -0.7  727  267           
12 19.07.17 270 (З) 20000 м    10/6 1000 м верхняя 
[Cu med, cong|Ci fib]
+21.6 +14.3 63 +30  1013.9  -0.1  727  268           
15 19.07.17 260 (З) 20000 м    10/4 1000 м верхняя 
[Cu med, cong|Ci fib]
+21.2 +14.1 64 +29  1014.2  0.2  727  269    +24.3       
18 19.07.17 270 (З) н/о    ясно 
+16.3 +13.8 85 +24  1015  727  274    +24.3       
21 19.07.17 тихо ()   н/о    ясно 
+13 +12.1 94 +18  1014.8  -0.7  726  277           
00 20.07.17 тихо ()   20000 м    4/4 1000 м 
[Cu med, cong]
+12.3 +11.7 96 +16  1015  -0.1  727  278           
03 20.07.17 210 (ЮЗ) 20000 м    6/3 1000 м верхняя 
[Cu med, cong|Ci sp]
+18.7 +14 74 +28  1014.3  0.3  727  271           
06 20.07.17 250 (З) 20000 м    10/8 600 м кучево-дожд., верхняя 
[Cb cap|Ci sp]
+21.9 +13 57 +28  1013.1  -0.7  726  268  +11.4         
09 20.07.17 320 (СЗ) 20000 м  гроза без осадков  8/6 600 м кучево-дожд., верхняя 
[Cb cap|Ci ing]
+24.5 +11.4 44 +28  1010.8  -0.7  726  266           
12 20.07.17 190 (Ю) 20000 м  в посл. час гроза{ливн. осадки}  8/8 600 м кучево-дожд. 
[Cb cap]
+22.9 +13.9 57 +31  1011.4  -0.7  725  267           
18 20.07.17 тихо ()   н/о  {гроза}  1/1 600 м кучево-дожд. 
[Cb cap]
+15.1 +12.2 83 +20  1013.3  0.3  726  275    +25     
21 20.07.17 тихо ()   н/о    ясно 
+12.6 +10.8 89 +16  1013.2  -0.5  725  277           
00 21.07.17 тихо ()   20000 м    4/0 средняя 
[Ac cast]
+12.1 +11.3 95 +16  1013.8  0.5  726  278           
03 21.07.17 150 (ЮВ) 20000 м    8/0 средняя 
[Ac trans]
+19 +14.5 75 +30  1013.1  0.4  726  270           
06 21.07.17 180 (Ю) 20000 м    10/3 600 м кучево-дожд., средняя, верхняя 
[Cb calv|Ac cast|Cc]
+22.6 +14.5 60 +31  1012.6  0.1  726  267  +10.9         
09 21.07.17 160 (Ю) 20000 м  гроза без осадков{ливн. осадки}  10/6 600 м кучево-дожд., средняя, верхняя 
[Cb cap|Ac cast|Ci ing]
+20.7 +17.1 80 +34  1011.9  -1  725  268           
12 21.07.17 220 (ЮЗ) 4000 м  гроза, ливневой дождь  8/6 600 м кучево-дожд., средняя, верхняя 
[Cb cap|Ac cuf|Ci ing]
+21.4 +14.2 64 +30  1012.2  0.3  725  268           
18 21.07.17 тихо ()   н/о  {гроза, ливн. осадки}  10/6 200 м верхняя 
[St|Ci ing]
+14 +12.9 93 +20  1014.3  0.2  726  276    +24.5  14     
21 21.07.17 тихо ()   н/о    3/3 600 м 
[Sc]
+11.6 +11 96 +15  1014.3  -0.4  726  278           
00 22.07.17 тихо ()   20000 м    ясно 
+11.3 +10.8 97 +14  1014.8  0.4  726  279           
03 22.07.17 тихо ()   20000 м    8/0 верхняя 
[Cc]
+18.6 +15.7 83 +29  1014.3  0.7  727  271           
06 22.07.17 280 (З) 20000 м    10/3 1000 м верхняя 
[Cu med, cong|Cc]
+22.4 +13.7 58 +30  1013.7  727  268  +11         
09 22.07.17 280 (З) 20000 м    10/4 600 м кучево-дожд., средняя, верхняя 
[Cb calv|Ac lent|Cc]
+23.4 +12.1 49 +28  1013.1  -0.5  726  267           
12 22.07.17 240 (ЮЗ) 20000 м    10/5 600 м кучево-дожд., верхняя 
[Cb cap|Ci sp]
+24.9 +11.8 44 +29  1012  -0.8  726  266           
15 22.07.17 тихо ()   20000 м    10/4 600 м кучево-дожд., верхняя 
[Cb cap|Ci fib]
+20.3 +14.2 68 +28  1012.9  0.2  726  269    +25       
Время (UTC), дата Ветер
(°,м/с) 
Видим.   Явления Облачность Т
(°С)
Тd
(°С)
f(%) Тe
(°С)
Pmin
(гПа)
dP
(гПа)
Po
(мм)
O2
(г/м3)
Тmin Tmax R s Состояние
почвы

Для получения пояснительной информации подведите курсор к названию столбца.

ПОГОДА в Щучинске - архив

Всё, что Вы хотите узнать о погоде в Щучинске - удобно и подробно!

Выберите нужную дату (начиная с 1 января 2015* года) и нажмите кнопку "Найти".
Будут отображены архивные сводки погоды по пункту Щучинск, начиная с указанной даты.


Отображать данные в формате CSV (для использования в таблицах Excel)


Внимание! Наш архив погоды предназначен исключительно для личного некоммерческого использования в познавательных целях. Если Вам необходимы официальные справки о состоянии погоды (для производственных, юридических, коммерческих и т.п. целей), обращайтесь в органы Росгидромета.

*Примечание: данная дата относится к архиву по метеостанциям СССР (Россия, СНГ, Балтия).
Архив по метеостанциям Зарубежной Европы и Азии (кроме Китая) хранится 10 дней, по другим регионам земного шара (Китай, Африка, Америка, Австралия, Океания) - 1 день.

Щучинск - район местоположения метеостанции


Название, широта, долгота, высота метеостанции:
Щучинск 52.9°ш. 70.2°д. 395 м над ур. моря [Казахстан]

Дополнительная информация

В oтличие oт бoльшинства пoгoдных сайтoв мы публикуем пoдрoбную метеoинфoрмацию в детальнoм прoфессиoнальнoм фoрмате.

Характеристики температуры и влажнoсти вoздуха измеряются на высoте 2 м в тени вдали oт зданий и деревьев.
Скoрoсть ветра измеряется на высoте 10 м (на урoвне рoста челoвека скoрoсть ветра ниже в 1.5-2 раза). Если метеoстанция нахoдится в гoрoде или в лесу, тo скoрoсть ветра занижена на 2-4 м/с пo сравнению с oткрытым местoм. Скoрoсть ветра над акватoриями крупных рек и oзёр, а также на вершинах хoлмoв на 2-5 м/с выше, чем в oбычных услoвиях.
Атмoсфернoе давление в разных тoчках местнoсти мoжет значительнo oтличаться oт давления на метеoстанции, в зависимoсти oт услoвий рельефа (при пoдъёме на 10 м давление пoнижается примернo на 1 мм рт.ст.).